STARLINK-34593, 64758

Orbit data source: Space-Track

STARLINK-34593, 64758 is a payload satellite owned by SpaceX/Seattle (US) in LEO that was launched on Tue, 08 Jul 2025 UTC via an FALCON 9 launch vehicle from the Air Force Eastern Test Range (AFETR). Payload-class satellites include a variety of spacecraft equipped with specific instruments for various scientific and technological missions. These include communications satellites like Starlink; space stations such as the ISS; scientific satellites like the Hubble; Earth observation satellites from companies like Planet Labs, Umbra, and HawkEye 360; GPS; miniature CubeSats for education and research; and military/defense satellites.

Loading next visibility...
Identifier
64758, 2025-147D
Orbit
LEO
Country
Flag of USUS
Related business
Manufacturer
SpaceX/Seattle
Mission
Operational Commercial Communications
Bus & Motor
STARLINK V2MO, Unknown motor
Mass
575 kg wet, ~530 kg dry
Launch date (UTC)
2025-07-08 (11 months ago)
Launch vehicle
FALCON 9
Launch site
Air Force Eastern Test Range (AFETR)
Object type
Payload
Rocket body
Debris
Shape & HBR
Box + 2 Pan, 17.7 m
Radar Cross Section
36.964 m², Large (>1 m²)

Expand to show TLE details & history
Last TLE update: 2 days ago

TLE from 2 days ago
0 STARLINK-34593
1 64758U 25147D   26170.17710159  .00023543  00000-0  70574-3 0  9999
2 64758  53.1588 129.6769 0001242  95.2596 264.8548 15.34399531 54310
Epoch: 2026-06-19T04:15Z
TLE epoch observation values (Epoch: 2026-06-19T04:15:01.577Z)
Latitude
-0.00004°
Longitude
158.51047°
Altitude
463.682 km
Speed
7.636 km/s
True Right ascension
08h 38m 42s
True Declination
0° 00' 00"
Sunlit
Object was in daylight at epoch
Visualization orbit readout
Latitude
Unknown
Longitude
Unknown
Altitude
Unknown
Speed
Unknown
Apparent Right ascension
Unknown
Apparent Declination
Unknown
Sunlit
N/A
Visualization observer readout
Local Sidereal Time
10:18:39
Azimuth
Unknown
Elevation
Unknown
Doppler factor
Unknown
Orbital elements
Apogee altitude
463.811 km
Perigee altitude
462.112 km
Semi-major axis
6,841.099 km
Eccentricity
0.00012
Inclination
53.1588°
RAAN
129.6769°
Arg. of periapsis
95.2596°
True anomaly
264.84063°
Mean anomaly
264.8548°
Eccentric anomaly
264.84771°
Mean motion
3.83579 °/min
Orbital period
93.85 mins
BSTAR
0.00070574
Loading maneuver chart data...
Computing Atmospheric mass density...
Loading historical data...
Loading historical data...
Loading historical data...
Loading historical data...
Loading historical data...
Loading historical data...
Loading historical data...

Documentation

Showing up to 5 results
|